DUMMY SAT 2/BREEZE-M

导读 | 星芒AI

DUMMY SAT 2/BREEZE-M 是一颗由俄罗斯发射的次级载荷卫星,主要用于测试卫星部署技术和验证轨道释放机制。该卫星作为主任务的附加组件,搭载于BREEZE-M上面级推进器上,进入近地轨道后脱离。尽管其功能有限,但此类卫星在航天任务中具有重要意义,有助于提高多任务发射的效率和可靠性。DUMMY SAT 2 并不具备实际通信或观测功能,主要用于工程验证和实验目的。

基本信息
目录编号:
40355
目录名称:
DUMMY SAT 2/BREEZE-M
国际标识:
2014-085A
轨道中心:
EARTH
卫星名称:
DUMMY SAT 2/BREEZE-M
卫星全名:
--
卫星状态:
在轨 (已飞行3963 天)
发射日期:
2014-12-23 UTC
国别 :
俄罗斯(独联体) (CIS)
星等 :
--
轨道信息
数据来源 国际轨道数据 AOE轨道数据
星历时间 2025-10-28T10:40:46+0800
1天前
查看轨道信息
2025-10-28T09:00:00+0800
1天前
查看轨道信息
半长轴 44000.957km 44000.364km
偏心率 0.0366475 0.0366486
轨道倾角 9.725° 9.726°
近地点辐角 348.762° 348.780°
升交点赤经 62.878° 62.877°
平近点角 10.405° 346.704°
近地点 36010.296km 36009.677km
远地点 39235.348km 39234.781km
周期 1530.921分钟 1530.890分钟
每日圈数 0.94061 0.940629
详细信息
使用方式:
暂无
2D轨道图
3D轨道图
轨道高度分析图
轨道倾角分析图
轨道综合分析图
查看轨道综合分析图